Regional Weather Roundup
Issued by NWS

Home | Current Version | Previous Version | Text Only | Print | Product List | Glossary Off
Versions: 1 2 3 4 5 6 7 8 9 10 11 12 13 14 15 16 17 18 19 20 21 22 23 24 25 26 27 28 29 30 31 32 33 34 35 36 37 38 39 40 41 42 43 44 45 46 47 48 49 50

000
ASUS45 KPSR 120810
RWRAZ

ARIZONA HOURLY REGIONAL WEATHER ROUNDUP
NATIONAL WEATHER SERVICE PHOENIX AZ
100 AM MST TUE DEC 12 2017

NOTE: FAIR INDICATES FEW OR NO CLOUDS BELOW 12,000 FEET WITH NO
SIGNIFICANT WEATHER AND/OR OBSTRUCTIONS TO VISIBILITY.

AZZ001>003-036-120900-
NORTHWEST ARIZONA

CITY           SKY/WX    TMP DP  RH WIND       PRES   REMARKS
BULLHEAD CITY  CLEAR     63  -2   7 N17G23    30.27S
KINGMAN        PTCLDY    40  -2  17 E6        30.36F
$$

AZZ004>008-015-016-018-120900-
NORTH CENTRAL ARIZONA

CITY           SKY/WX    TMP DP  RH WIND       PRES   REMARKS
GRAND CANYON   PTCLDY    15 -16  24 CALM      30.49S
WILLIAMS       PTCLDY    23  -9  23 SE6       30.44S WCI  16
PRESCOTT       PTCLDY    32  -5  20 S7        30.40S WCI  26
FLAGSTAFF      PTCLDY    18  -9  29 CALM      30.46S
PAYSON         CLEAR     45 -11   9 NE8       30.36F
PAGE           PTCLDY    32  14  47 CALM      30.49R
$$

AZZ009>014-017-120900-
NORTHEAST ARIZONA

CITY           SKY/WX    TMP DP  RH WIND       PRES   REMARKS
WINSLOW        CLOUDY    18  -7  32 SE3       30.48S
SAINT JOHNS    MOCLDY    16  -3  43 S3        30.46F
SHOW LOW       PTCLDY    27  -4  26 E6        30.47S WCI  20
$$

AZZ540-542>544-546-548-120900-
GREATER PHOENIX AREA

CITY           SKY/WX    TMP DP  RH WIND       PRES   REMARKS
PHOENIX        PTCLDY    53  19  26 CALM      30.21S
BUCKEYE        CLEAR     50  -2  11 NE3       30.22S
LUKE AFB       CLEAR     46  19  34 N10       30.21S
DEER VALLEY    CLEAR     52   3  13 CALM      30.22S
SCOTTSDALE     CLEAR     48  22  35 CALM      30.23S
$$

AZZ539-553-120900-
SOUTHWEST MARICOPA COUNTY AND PINAL COUNTY

CITY           SKY/WX    TMP DP  RH WIND       PRES   REMARKS
CASA GRANDE    NOT AVBL
$$

AZZ503-504-507>509-120900-
SOUTHEAST ARIZONA

CITY           SKY/WX    TMP DP  RH WIND       PRES   REMARKS
TUCSON         MOCLDY    63  21  20 SE14      30.26F
DAVIS-MONTHAN  CLOUDY    59  21  23 SE13      30.24F
NOGALES        PTCLDY    45  18  34 E5        30.28F
SIERRA VISTA   PTCLDY    43  19  38 W3        30.33S
DOUGLAS        PTCLDY    39  19  44 NW7       30.32F WCI  34
SAFFORD        MOCLDY    49   7  18 E9        30.32R
$$

AZZ532-120900-
SOUTHWEST ARIZONA

CITY           SKY/WX    TMP DP  RH WIND       PRES   REMARKS
YUMA           CLEAR     59   5  11 CALM      30.20S
$$

CAZ041-043-047-048-061-525>527-560>570-120900-
SOUTHERN CALIFORNIA

CITY           SKY/WX    TMP DP  RH WIND       PRES   REMARKS
DOWNTOWN L.A.  CLEAR     54  21  27 CALM      30.18F
L.A. AIRPORT   PTCLDY    61  18  18 SE3       30.19S
SAN DIEGO      CLEAR     56  25  30 CALM      30.19S
BURBANK        CLEAR     52  15  23 N3        30.20S
ONTARIO        PTCLDY    53  21  28 N6        30.21F
RIVERSIDE      CLEAR     51  15  23 E7        30.22S
PALM SPRINGS   CLEAR     60   4  10 NW8       30.25S
EL CENTRO NAS  CLEAR     48   5  17 W9        30.22F
IMPERIAL       CLEAR     48  14  25 W7        30.20S
BLYTHE         CLEAR     48  -3  12 W6        30.24F
NEEDLES        CLEAR     52  -4  10 NW5       30.28S
$$

NVZ020-UTZ003-120900-
SOUTHERN NEVADA-UTAH

CITY           SKY/WX    TMP DP  RH WIND       PRES   REMARKS
LAS VEGAS      CLEAR     44   1  16 S6        30.36S
SALT LAKE CITY SNOW      25  23  92 CALM      30.60F VSB 1/4
$$

NMZ009-TXZ055-120900-
NEW MEXICO-WEST TEXAS

CITY           SKY/WX    TMP DP  RH WIND       PRES   REMARKS
ALBUQUERQUE    CLOUDY    45   1  16 E22       30.45F
EL PASO        MOCLDY    36  28  73 N7        30.38R WCI  30
$$


........................KEY........................
SKY/WX - SKY CONDITION/WEATHER
TMP    - TEMPERATURE IN FAHRENHEIT
DP     - DEW POINT IN FAHRENHEIT
RH     - RELATIVE HUMIDITY IN PERCENT
WIND   - DIRECTION AND SPEED IN MILES PER HOUR (MPH)
VRB    - VARIABLE WIND DIRECTION
PRES   - MEAN SEA LEVEL PRESSURE IN INCHES OF MERCURY
         F - FALLING PRESSURE   R - RISING PRESSURE
         S - STEADY PRESSURE
VSB    - VISIBILITY IN MILES
HX     - HEAT INDEX IN FAHRENHEIT
WCI    - WIND CHILL INDEX IN FAHRENHEIT
TC     - TEMPERATURE IN CELSIUS WHICH IS ALSO KNOWN AS
         TEMPERATURE IN CENTIGRADE
AFB    - AIR FORCE BASE
         LUKE AFB IS LUKE AIR FORCE BASE
         DAVIS-MONTHAN IS DAVIS-MONTHAN AIR FORCE BASE
NAS    - NAVAL AIR STATION
         EL CENTRO NAS IS EL CENTRO NAVAL AIR STATION
N/A    - NOT AVAILABLE




USA.gov is the U.S. government's official web portal to all federal, state and local government web resources and services.